Radiation Dose at Monitoring Post of Fukushima Daini Nuclear Power Station
Date,Time,MP-1(microSv/h),MP-2(microSv/h),MP-3(microSv/h),MP-4(microSv/h),MP-5(microSv/h),MP-6(microSv/h),MP-7(microSv/h),Wind Direction,Wind Velocity(m/s),Rain
2023/08/07,00:00,0.152,0.139,0.227,0.215,0.214,0.123,0.077,south,6.9,No
2023/08/07,00:10,0.153,0.141,0.226,0.215,0.212,0.123,0.078,south,7.1,No
2023/08/07,00:20,0.152,0.141,0.227,0.215,0.216,0.122,0.077,south,7.9,No
2023/08/07,00:30,0.151,0.140,0.229,0.218,0.217,0.123,0.077,south,6.4,No
2023/08/07,00:40,0.151,0.139,0.227,0.217,0.214,0.123,0.077,south,6.0,No
2023/08/07,00:50,0.153,0.139,0.226,0.215,0.212,0.123,0.078,south,6.5,No
2023/08/07,01:00,0.153,0.141,0.227,0.213,0.213,0.123,0.078,south,5.6,No
2023/08/07,01:10,0.151,0.140,0.229,0.216,0.216,0.121,0.078,south,6.2,No
2023/08/07,01:20,0.150,0.139,0.228,0.217,0.215,0.122,0.077,south,6.3,No
2023/08/07,01:30,0.153,0.140,0.226,0.215,0.213,0.123,0.077,south,5.8,No
2023/08/07,01:40,0.154,0.141,0.227,0.214,0.212,0.123,0.078,south,5.9,No
2023/08/07,01:50,0.152,0.140,0.230,0.216,0.217,0.123,0.078,south,7.2,No
2023/08/07,02:00,0.151,0.139,0.227,0.217,0.215,0.122,0.077,south-southeast,7.9,No
2023/08/07,02:10,0.154,0.140,0.226,0.216,0.213,0.124,0.078,south,7.3,No
2023/08/07,02:20,0.153,0.141,0.226,0.214,0.214,0.123,0.077,south,7.6,No
2023/08/07,02:30,0.152,0.140,0.230,0.216,0.217,0.122,0.078,south,6.6,No
2023/08/07,02:40,0.152,0.139,0.227,0.217,0.213,0.122,0.077,south,5.1,No
2023/08/07,02:50,0.153,0.140,0.227,0.214,0.213,0.123,0.078,south,5.5,No
2023/08/07,03:00,0.153,0.140,0.229,0.213,0.214,0.124,0.077,south,5.6,No
2023/08/07,03:10,0.152,0.139,0.228,0.216,0.216,0.124,0.077,south,7.5,No
2023/08/07,03:20,0.152,0.139,0.227,0.217,0.213,0.122,0.077,south,7.5,No
2023/08/07,03:30,0.153,0.140,0.226,0.215,0.214,0.123,0.077,south,8.1,No
2023/08/07,03:40,0.152,0.140,0.229,0.213,0.215,0.123,0.077,south,7.0,No
2023/08/07,03:50,0.152,0.139,0.228,0.218,0.216,0.123,0.077,south,7.2,No
2023/08/07,04:00,0.152,0.139,0.227,0.218,0.214,0.123,0.078,south,7.5,No
2023/08/07,04:10,0.154,0.141,0.227,0.214,0.213,0.123,0.078,south,7.4,No
2023/08/07,04:20,0.153,0.140,0.230,0.215,0.215,0.124,0.077,south,7.8,No
2023/08/07,04:30,0.152,0.140,0.227,0.216,0.214,0.122,0.078,south,6.8,No
2023/08/07,04:40,0.153,0.141,0.226,0.216,0.215,0.122,0.078,south,6.2,No
2023/08/07,04:50,0.153,0.141,0.229,0.214,0.212,0.123,0.078,south,6.6,No
2023/08/07,05:00,0.151,0.140,0.228,0.215,0.217,0.124,0.078,south,7.4,No
2023/08/07,05:10,0.151,0.140,0.226,0.217,0.215,0.123,0.077,south,6.9,No
2023/08/07,05:20,0.153,0.141,0.226,0.215,0.215,0.121,0.078,south,7.1,No
2023/08/07,05:30,0.152,0.140,0.229,0.214,0.213,0.123,0.078,south,7.0,Yes
2023/08/07,05:40,0.151,0.139,0.227,0.215,0.216,0.124,0.077,south,6.4,No
2023/08/07,05:50,0.151,0.139,0.227,0.217,0.215,0.123,0.078,south,5.2,No
2023/08/07,06:00,0.153,0.141,0.228,0.215,0.214,0.122,0.077,south,5.7,Yes
2023/08/07,06:10,0.153,0.141,0.229,0.213,0.212,0.123,0.078,south,5.4,Yes
2023/08/07,06:20,0.152,0.140,0.227,0.214,0.212,0.124,0.078,south,5.6,No
2023/08/07,06:30,0.152,0.140,0.225,0.216,0.214,0.124,0.078,south,6.2,No
2023/08/07,06:40,0.151,0.140,0.226,0.217,0.217,0.123,0.078,south,5.7,No
2023/08/07,06:50,-,-,-,-,-,-,-,-,-,-
2023/08/07,07:00,0.153,0.140,0.229,0.215,0.214,0.122,0.077,south,5.2,No
2023/08/07,07:10,0.152,0.141,0.227,0.214,0.213,0.122,0.078,south,5.6,No
2023/08/07,07:20,0.151,0.140,0.227,0.213,0.213,0.124,0.077,south,6.8,No
2023/08/07,07:30,0.151,0.139,0.228,0.214,0.211,0.123,0.078,south-southeast,6.6,No
2023/08/07,07:40,0.152,0.139,0.228,0.215,0.214,0.122,0.077,south-southeast,6.5,No
2023/08/07,07:50,0.151,0.139,0.228,0.216,0.213,0.122,0.077,south-southeast,7.4,No
2023/08/07,08:00,-,-,-,-,-,-,-,-,-,-
2023/08/07,08:10,0.153,0.139,0.228,0.214,0.213,0.123,0.077,south-southeast,8.8,No
2023/08/07,08:20,0.151,0.139,0.226,0.213,0.213,0.124,0.078,south-southeast,9.5,No
2023/08/07,08:30,0.152,0.140,0.227,0.215,0.214,0.124,0.077,south,8.4,Yes
2023/08/07,08:40,0.151,0.139,0.228,0.214,0.213,0.123,0.077,south,7.7,No
2023/08/07,08:50,0.152,0.139,0.226,0.215,0.213,0.122,0.078,south-southeast,8.3,No
2023/08/07,09:00,0.152,0.140,0.228,0.215,0.215,0.123,0.077,south-southeast,7.4,No
2023/08/07,09:10,0.152,0.140,0.227,0.215,0.214,0.123,0.078,south-southeast,8.8,No
2023/08/07,09:20,0.152,0.140,0.228,0.216,0.214,0.123,0.077,south,8.8,No
2023/08/07,09:30,0.152,0.139,0.228,0.216,0.215,0.123,0.078,south-southeast,9.5,No
2023/08/07,09:40,0.153,0.140,0.228,0.214,0.215,0.123,0.078,south-southeast,10.0,No
2023/08/07,09:50,0.151,0.142,0.229,0.214,0.216,0.123,0.078,south,10.9,No
2023/08/07,10:00,0.152,0.140,0.227,0.215,0.214,0.123,0.078,south-southeast,10.6,No
2023/08/07,10:10,0.153,0.141,0.229,0.216,0.214,0.123,0.078,south-southeast,12.6,No
2023/08/07,10:20,0.153,0.141,0.228,0.216,0.214,0.123,0.078,south-southeast,10.4,No
2023/08/07,10:30,0.153,0.140,0.229,0.217,0.215,0.123,0.078,south-southeast,10.9,No
2023/08/07,10:40,0.152,0.140,0.228,0.216,0.215,0.122,0.078,south-southeast,11.5,No
2023/08/07,10:50,0.153,0.140,0.229,0.216,0.214,0.123,0.077,south-southeast,10.9,No
2023/08/07,11:00,0.153,0.141,0.227,0.216,0.215,0.124,0.078,south-southeast,10.6,No
2023/08/07,11:10,0.153,0.140,0.228,0.216,0.215,0.124,0.078,south-southeast,9.8,No
2023/08/07,11:20,0.154,0.141,0.228,0.216,0.215,0.123,0.077,south-southeast,10.3,No
2023/08/07,11:30,0.153,0.140,0.228,0.217,0.214,0.123,0.078,south-southeast,10.6,No
2023/08/07,11:40,0.153,0.141,0.228,0.217,0.215,0.123,0.078,south,12.9,No
2023/08/07,11:50,0.152,0.141,0.228,0.217,0.216,0.124,0.078,south-southeast,10.9,No
2023/08/07,12:00,0.152,0.141,0.228,0.216,0.215,0.124,0.078,south-southeast,11.7,No
2023/08/07,12:10,0.153,0.141,0.228,0.216,0.214,0.124,0.078,south-southeast,12.2,No
2023/08/07,12:20,0.153,0.142,0.229,0.216,0.214,0.123,0.078,south-southeast,13.3,No
2023/08/07,12:30,0.154,0.141,0.229,0.217,0.216,0.124,0.078,south-southeast,11.5,No
2023/08/07,12:40,0.153,0.140,0.229,0.217,0.215,0.123,0.078,south-southeast,11.7,No
2023/08/07,12:50,0.153,0.140,0.228,0.217,0.215,0.124,0.077,south-southeast,11.1,No
2023/08/07,13:00,0.153,0.141,0.229,0.217,0.215,0.123,0.077,south-southeast,12.0,No
2023/08/07,13:10,0.153,0.141,0.228,0.215,0.214,0.123,0.077,south-southeast,12.6,No
2023/08/07,13:20,0.153,0.140,0.228,0.216,0.215,0.123,0.077,south,11.5,No
2023/08/07,13:30,0.153,0.140,0.230,0.218,0.215,0.123,0.077,south-southeast,11.4,No
2023/08/07,13:40,0.154,0.140,0.229,0.217,0.214,0.124,0.077,south-southeast,12.2,No
2023/08/07,13:50,0.153,0.140,0.230,0.216,0.214,0.123,0.077,south-southeast,12.0,No
2023/08/07,14:00,0.154,0.141,0.228,0.217,0.215,0.124,0.078,south-southeast,9.8,No
2023/08/07,14:10,0.153,0.141,0.228,0.217,0.215,0.122,0.078,south-southeast,10.1,No
2023/08/07,14:20,0.153,0.140,0.229,0.216,0.214,0.124,0.078,south-southeast,9.5,No
2023/08/07,14:30,0.153,0.140,0.228,0.217,0.215,0.123,0.078,south-southeast,10.9,No
2023/08/07,14:40,0.154,0.140,0.228,0.217,0.216,0.123,0.078,south-southeast,10.3,No
2023/08/07,14:50,0.153,0.140,0.228,0.216,0.214,0.122,0.078,south-southeast,12.5,No
2023/08/07,15:00,0.153,0.140,0.226,0.217,0.214,0.123,0.077,south-southeast,10.9,No
2023/08/07,15:10,0.153,0.140,0.228,0.216,0.214,0.124,0.077,south-southeast,11.7,No
2023/08/07,15:20,0.153,0.141,0.228,0.216,0.214,0.124,0.078,south-southeast,11.7,No
2023/08/07,15:30,0.152,0.140,0.227,0.214,0.215,0.124,0.077,south-southeast,11.1,No
2023/08/07,15:40,0.152,0.140,0.227,0.216,0.213,0.123,0.078,south-southeast,10.1,No
2023/08/07,15:50,0.152,0.139,0.227,0.215,0.214,0.123,0.077,south-southeast,10.6,No
2023/08/07,16:00,0.152,0.139,0.226,0.215,0.214,0.124,0.077,south,11.5,No
2023/08/07,16:10,0.151,0.140,0.226,0.215,0.214,0.123,0.077,south-southeast,12.0,No
2023/08/07,16:20,0.152,0.140,0.228,0.215,0.214,0.124,0.077,south,10.7,No
2023/08/07,16:30,0.152,0.140,0.228,0.215,0.214,0.123,0.077,south-southeast,10.9,No
2023/08/07,16:40,0.151,0.140,0.227,0.215,0.213,0.123,0.077,south-southeast,11.5,No
2023/08/07,16:50,0.152,0.140,0.227,0.214,0.214,0.122,0.077,south,11.5,No
2023/08/07,17:00,0.152,0.140,0.227,0.214,0.214,0.122,0.077,south,10.3,No
2023/08/07,17:10,0.152,0.139,0.227,0.214,0.213,0.123,0.077,south,9.8,No
2023/08/07,17:20,0.151,0.140,0.226,0.215,0.213,0.123,0.077,south-southeast,8.4,No
2023/08/07,17:30,0.151,0.140,0.226,0.218,0.214,0.123,0.079,south,9.2,No
2023/08/07,17:40,0.150,0.139,0.227,0.218,0.214,0.123,0.078,south-southeast,9.6,No
2023/08/07,17:50,0.152,0.139,0.231,0.217,0.213,0.123,0.077,south-southeast,9.2,No
2023/08/07,18:00,0.151,0.139,0.231,0.216,0.213,0.124,0.076,south-southeast,8.4,No
2023/08/07,18:10,0.152,0.141,0.229,0.215,0.213,0.124,0.077,south,8.2,No
2023/08/07,18:20,0.153,0.141,0.227,0.215,0.214,0.123,0.078,south-southeast,6.5,No
2023/08/07,18:30,0.153,0.140,0.226,0.215,0.217,0.123,0.078,south-southeast,6.8,No
2023/08/07,18:40,0.152,0.139,0.227,0.217,0.215,0.123,0.077,south,7.8,No
2023/08/07,18:50,0.151,0.139,0.229,0.217,0.216,0.123,0.077,south,7.9,No
2023/08/07,19:00,0.151,0.139,0.230,0.216,0.214,0.123,0.077,south,7.4,No
2023/08/07,19:10,0.152,0.141,0.228,0.215,0.213,0.124,0.077,south,6.5,No
2023/08/07,19:20,0.154,0.141,0.227,0.214,0.216,0.124,0.078,south,7.3,No
2023/08/07,19:30,0.153,0.141,0.227,0.216,0.217,0.124,0.078,south-southeast,7.6,No
2023/08/07,19:40,0.153,0.139,0.230,0.219,0.215,0.123,0.076,south,7.9,No
2023/08/07,19:50,0.151,0.140,0.229,0.217,0.214,0.123,0.078,south,7.1,No
2023/08/07,20:00,0.153,0.140,0.229,0.216,0.213,0.123,0.077,south,7.1,No
2023/08/07,20:10,0.153,0.142,0.227,0.215,0.215,0.124,0.078,south-southeast,7.2,No
2023/08/07,20:20,0.153,0.140,0.226,0.215,0.216,0.124,0.077,south,7.4,No
2023/08/07,20:30,0.152,0.140,0.231,0.217,0.215,0.123,0.078,south,6.3,No
2023/08/07,20:40,0.151,0.139,0.230,0.217,0.214,0.122,0.077,south,6.5,No
2023/08/07,20:50,0.151,0.140,0.228,0.215,0.212,0.122,0.078,south,5.8,No
2023/08/07,21:00,0.154,0.141,0.226,0.215,0.216,0.123,0.078,south,6.3,No
2023/08/07,21:10,0.153,0.141,0.228,0.217,0.216,0.124,0.078,south,7.5,No
2023/08/07,21:20,0.152,0.139,0.231,0.217,0.215,0.124,0.078,south,6.7,No
2023/08/07,21:30,0.151,0.140,0.229,0.217,0.213,0.123,0.077,south,6.0,No
2023/08/07,21:40,0.152,0.142,0.227,0.216,0.212,0.122,0.077,south,5.6,No
2023/08/07,21:50,0.154,0.141,0.226,0.213,0.216,0.124,0.077,south,6.5,No
2023/08/07,22:00,0.153,0.139,0.229,0.216,0.216,0.123,0.078,south,6.4,No
2023/08/07,22:10,0.152,0.140,0.230,0.218,0.214,0.124,0.077,south,6.2,No
2023/08/07,22:20,0.150,0.141,0.228,0.216,0.213,0.122,0.078,south,6.2,Yes
2023/08/07,22:30,0.153,0.140,0.227,0.214,0.213,0.123,0.077,south,5.5,No
2023/08/07,22:40,0.154,0.140,0.228,0.213,0.217,0.123,0.078,south,5.6,No
2023/08/07,22:50,0.152,0.139,0.229,0.217,0.215,0.123,0.078,south,6.1,No
2023/08/07,23:00,0.152,0.140,0.229,0.218,0.214,0.123,0.078,south,6.4,No
2023/08/07,23:10,0.151,0.142,0.227,0.216,0.212,0.124,0.077,south,5.3,No
2023/08/07,23:20,0.153,0.141,0.226,0.215,0.216,0.124,0.078,south,5.4,No
2023/08/07,23:30,0.153,0.139,0.229,0.214,0.216,0.122,0.078,south,6.1,No
2023/08/07,23:40,0.151,0.140,0.229,0.218,0.215,0.123,0.078,south,5.4,No
2023/08/07,23:50,0.152,0.141,0.228,0.218,0.212,0.124,0.077,south,6.1,No
